This demonstration page uses our WeatherBlox Daily Observations layout. Learn more.

Left ArrowRight Arrow

Hourly Observations for September 27, 2019

Temp ( °F °C ) Dew Point ( °F °C ) Humidity (%) Winds ( mph kmh ) Pressure ( in mb ) Visibility ( mi km ) Precip ( " mm )
12:08 am 00:08 Partly Cloudy 66 19 61 16 83 83 SSW 13 20 29.61 1003 10 16 0.00 0.00
12:51 am 00:51 Mostly Cloudy 66 19 63 17 88 88 SSW 16 26 29.59 1002 10 16 0.00 0.00
12:53 am 00:53 Mostly Cloudy 67 19.4 62 16.7 84 84 SSW 16 26 29.61 1003 10 16 0.00 0.00
1:53 am 01:53 Cloudy 66 18.9 62 16.7 87 87 S 10 17 29.58 1002 10 16 0.00 0.00
2:53 am 02:53 Cloudy 67 19.4 64 17.8 91 91 S 10 17 29.55 1001 9 14 0.00 0.00
3:53 am 03:53 Cloudy 68 20 65 18.3 90 90 SSW 13 20 29.53 1000 10 16 0.00 0.00
4:53 am 04:53 Cloudy 69 20.6 66 18.9 90 90 NW 12 19 29.58 1002 9 14 0.00 0.00
5:18 am 05:18 Cloudy with Light Rain 66 19 64 18 94 94 NW 9 15 29.56 1001 2 3 0.00 0.00
5:45 am 05:45 Cloudy with Mist and Fog 66 18.9 64 17.8 93 93 NNW 6 9 29.56 1001 3 5 0.00 0.00
5:53 am 05:53 Cloudy with Mist and Fog 66 18.9 64 17.8 93 93 undefined N/A 29.58 1002 3 5 0.00 0.00
6:02 am 06:02 Cloudy with Mist and Fog 66 18.9 64 17.8 93 93 N 7 11 29.56 1001 4 6 0.00 0.00
6:42 am 06:42 Cloudy with Mist and Fog 66 18.9 64 17.8 93 93 N 3 6 29.55 1001 6 10 0.00 0.00
6:53 am 06:53 Cloudy with Mist and Fog 66 18.9 64 17.8 93 93 NNW 7 11 29.57 1001 6 10 0.00 0.00
7:50 am 07:50 Mostly Sunny 63 17 61 16 94 94 NNW 10 17 29.60 1002 10 16 0.00 0.00
7:53 am 07:53 Mostly Sunny 63 17.2 60 15.6 90 90 NNW 12 19 29.60 1003 10 16 0.00 0.00
8:53 am 08:53 Partly Cloudy 63 17.2 58 14.4 84 84 NNE 12 19 29.62 1003 10 16 0.00 0.00
9:53 am 09:53 Sunny 66 18.9 59 15 78 78 N 15 24 29.65 1004 10 16 0.00 0.00
10:53 am 10:53 Sunny 70 21.1 51 10.6 51 51 NE 21 33 29.66 1004 10 16 0.00 0.00
11:53 am 11:53 Sunny 74 23.3 51 10.6 45 45 NNE 16 26 29.65 1004 10 16 0.00 0.00
12:53 pm 12:53 Sunny with Light Rain 69 20.6 49 9.4 49 49 N 20 31 29.69 1006 10 16 0.00 0.00
1:53 pm 13:53 Sunny with Light Rain 71 21.7 49 9.4 46 46 NNE 21 33 29.71 1006 10 16 0.00 0.00
2:53 pm 14:53 Sunny with Light Rain 69 20.6 49 9.4 49 49 N 17 28 29.72 1006 10 16 0.00 0.00
3:53 pm 15:53 Sunny 72 22.2 49 9.4 44 44 NNE 17 28 29.72 1006 10 16 0.00 0.00
4:53 pm 16:53 Sunny 72 22.2 47 8.3 41 41 NNE 18 30 29.72 1006 10 16 0.00 0.00
5:53 pm 17:53 Sunny 70 21.1 49 9.4 47 47 NE 12 19 29.75 1008 10 16 0.00 0.00
6:53 pm 18:53 Sunny 66 18.9 49 9.4 54 54 NE 8 13 29.78 1009 10 16 0.00 0.00
7:53 pm 19:53 Clear 64 17.8 51 10.6 63 63 NNE 9 15 29.81 1010 10 16 0.00 0.00
8:53 pm 20:53 Clear 63 17.2 48 8.9 58 58 NNE 12 19 29.84 1010 10 16 0.00 0.00
9:53 pm 21:53 Clear 60 15.6 47 8.3 62 62 NNE 15 24 29.85 1011 10 16 0.00 0.00
10:53 pm 22:53 Clear 59 15 48 8.9 67 67 NNE 16 26 29.89 1012 10 16 0.00 0.00
11:53 pm 23:53 Clear 57 13.9 47 8.3 69 69 NNE 14 22 29.94 1014 10 16 0.00 0.00

Powered by AerisWeather